Simultaneous Nadir Overpasses (SNOs) Predictions

Prediction of SNOs between LANDSAT-8 and METOP-B Satellite Orbit:

Table of predicted SNOs for the next 14.0 days since TLE Epoch: 7/3/2015
Index Date (LANDSAT-8) Time (LANDSAT-8) Lat,Lon (LANDSAT-8) SZA (LANDSAT-8 ) Date (METOP-B) Time (METOP-B) Lat,Lon (METOP-B) SZA (METOP-B ) Distance(km) Time Diff (sec)
1 07/05/2015 19:58:42 -81.09, 99.88 119.64 07/05/2015 19:57:41 -81.10, 99.79 119.68 1.66 61
2 07/05/2015 20:48:07 81.12, -92.02 60.43 07/05/2015 20:48:20 81.12, -92.17 60.42 2.69 13
3 07/08/2015 15:32:58 -81.10, 166.48 119.34 07/08/2015 15:32:02 -81.10, 166.35 119.37 2.11 56
4 07/08/2015 16:22:23 81.13, -25.45 60.74 07/08/2015 16:22:40 81.14, -25.26 60.77 3.23 17
5 07/11/2015 11:07:15 -81.11,-126.99 118.99 07/11/2015 11:06:24 -81.11,-127.10 119.02 1.98 51
6
